Retour au catalogue

STARLINK-6109

ActifCommunicationsVLEO
NORAD 56094·PAYLOAD·🇺🇸 United States

Lancé Mar 29, 2023 depuis Cape Canaveral Space Force Station

Loading…

Prochains Passages (prochaines 24 heures)

TLE

FraisSource: CelesTrak SupGP

Époque: Sep 15, 2026, 01:22 UTC

1 56094C 23046B   26258.05743056 -.00014674  00000+0 -53164-3 0  2585
2 56094  42.9996 171.9310 0001023 254.1769 154.8266 15.27577324    13

Suivez STARLINK-6109 en temps réel avec AllMySat

Download on the App Store